Location: Val-d'Or
(48.1170°N, 77.7670°W)
Time: 08:12:21
(UTC-04:00)

ISS - Pass Details

Date: 22 May 2018
Orbit: 402 x 407 km, 51.6° (Epoch: 25 May)

Event Time Altitude Azimuth Distance (km) Brightness Sun altitude
Rises 01:39:10 0° 286° (WNW) 2,319 0.1 -21.1°
Reaches altitude 10° 01:41:18 10° 293° (WNW) 1,458 -0.9 -21.1°
Maximum altitude 01:44:28 46° 8° (N) 550 -2.8 -21.0°
Drops below altitude 10° 01:47:38 10° 84° (E) 1,456 -0.8 -20.9°
Sets 01:49:45 0° 90° (E) 2,314 0.1 -20.9°
